TAP26TS LPPT-GCTS

Flight info

Callsign TAP26TS
Flight time N/A
Altitude 37000
Route ULVOT DCT BEXAL UN866 KONBA
Aircraft A319/M-SDE3FGHIRWY/LB1

Departure

Time N/A
Airport Lisbon Humberto Delgado Airport (LPPT)

Arrival

Time 2026-05-06 20:35
Airport Tenerife Sur Airport (GCTS)
Time Latitude Longitude Altitude Speed Heading
2026-05-06 20:02 29.19733 -16.74348 37061 ft 447 kts 224°
2026-05-06 20:02 29.17321 -16.76603 37056 ft 447 kts 224°
2026-05-06 20:03 29.12511 -16.81102 37061 ft 447 kts 224°
2026-05-06 20:03 29.07700 -16.85608 37055 ft 447 kts 224°
2026-05-06 20:04 29.02893 -16.90105 37053 ft 446 kts 224°
2026-05-06 20:04 28.98080 -16.94584 37054 ft 446 kts 224°
2026-05-06 20:05 28.93259 -16.99055 37050 ft 446 kts 224°
2026-05-06 20:05 28.88437 -17.03525 37050 ft 446 kts 224°
2026-05-06 20:06 28.83623 -17.07984 37051 ft 446 kts 224°
2026-05-06 20:06 28.78813 -17.12453 37052 ft 446 kts 224°
2026-05-06 20:07 28.74002 -17.16917 37049 ft 446 kts 224°
2026-05-06 20:07 28.70712 -17.19958 37051 ft 446 kts 223°
2026-05-06 20:08 28.65889 -17.24403 37047 ft 446 kts 223°
2026-05-06 20:08 28.61120 -17.28790 37049 ft 446 kts 223°
2026-05-06 20:09 28.56298 -17.33225 37046 ft 446 kts 224°
2026-05-06 20:09 28.51478 -17.37658 37047 ft 446 kts 223°
2026-05-06 20:10 28.46251 -17.41456 37050 ft 458 kts 199°
2026-05-06 20:10 28.43065 -17.41846 37044 ft 467 kts 177°
2026-05-06 20:10 28.39918 -17.40946 37046 ft 472 kts 155°
2026-05-06 20:11 28.37231 -17.38885 37045 ft 474 kts 134°
2026-05-06 20:11 28.35290 -17.35847 37042 ft 471 kts 112°
2026-05-06 20:11 28.33280 -17.28793 37048 ft 471 kts 104°
2026-05-06 20:12 28.31128 -17.21825 37041 ft 474 kts 118°
2026-05-06 20:12 28.27774 -17.15366 37049 ft 475 kts 119°
2026-05-06 20:13 28.24295 -17.08992 37047 ft 475 kts 123°
2026-05-06 20:13 28.20517 -17.02869 36619 ft 471 kts 124°
2026-05-06 20:14 28.18624 -16.99906 36421 ft 456 kts 125°
2026-05-06 20:14 28.16515 -16.97294 36040 ft 446 kts 144°
2026-05-06 20:14 28.13871 -16.95523 35534 ft 440 kts 155°
2026-05-06 20:14 28.11088 -16.94106 34985 ft 436 kts 159°
2026-05-06 20:15 28.08591 -16.93034 34511 ft 434 kts 161°
2026-05-06 20:15 28.05748 -16.91920 33977 ft 431 kts 163°
2026-05-06 20:15 28.02832 -16.91320 33412 ft 421 kts 185°
2026-05-06 20:15 28.00040 -16.91975 32928 ft 403 kts 210°
2026-05-06 20:16 27.97818 -16.93735 32437 ft 381 kts 236°
2026-05-06 20:16 27.96529 -16.96217 31936 ft 357 kts 261°
2026-05-06 20:16 27.96036 -16.98895 31265 ft 344 kts 266°
2026-05-06 20:16 27.95625 -17.01554 30456 ft 341 kts 266°
2026-05-06 20:17 27.95219 -17.04174 29662 ft 336 kts 266°
2026-05-06 20:17 27.94816 -17.06762 28810 ft 331 kts 266°
2026-05-06 20:17 27.94291 -17.09292 27964 ft 332 kts 258°
2026-05-06 20:17 27.93500 -17.11745 27124 ft 332 kts 253°
2026-05-06 20:18 27.92428 -17.14072 26161 ft 339 kts 243°
2026-05-06 20:18 27.91206 -17.16394 24876 ft 348 kts 249°
2026-05-06 20:18 27.90276 -17.18936 23592 ft 355 kts 256°
2026-05-06 20:18 27.89433 -17.21583 22327 ft 358 kts 256°
2026-05-06 20:19 27.88620 -17.24224 21348 ft 353 kts 256°
2026-05-06 20:19 27.87840 -17.26827 20552 ft 344 kts 256°
2026-05-06 20:19 27.87098 -17.29357 19760 ft 335 kts 256°
2026-05-06 20:19 27.86385 -17.31840 18965 ft 329 kts 256°
2026-05-06 20:20 27.85703 -17.34280 18164 ft 323 kts 256°
2026-05-06 20:20 27.85038 -17.36677 17297 ft 317 kts 253°
2026-05-06 20:20 27.83951 -17.38828 16472 ft 318 kts 232°
2026-05-06 20:20 27.82228 -17.40385 15674 ft 319 kts 210°
2026-05-06 20:21 27.80113 -17.41126 14902 ft 321 kts 188°
2026-05-06 20:21 27.77891 -17.40923 14228 ft 323 kts 166°
2026-05-06 20:21 27.75883 -17.39808 13573 ft 323 kts 143°
2026-05-06 20:21 27.74387 -17.37955 12869 ft 320 kts 120°
2026-05-06 20:22 27.73601 -17.35645 12185 ft 314 kts 98°
2026-05-06 20:22 27.73627 -17.33227 11809 ft 307 kts 76°
2026-05-06 20:22 27.74378 -17.30995 11561 ft 303 kts 56°
2026-05-06 20:22 27.75746 -17.29224 11321 ft 298 kts 36°
2026-05-06 20:23 27.77407 -17.27843 11079 ft 296 kts 33°
2026-05-06 20:23 27.79074 -17.26480 10839 ft 295 kts 33°
2026-05-06 20:23 27.80731 -17.25122 10596 ft 294 kts 33°
2026-05-06 20:23 27.82286 -17.23634 10361 ft 294 kts 47°
2026-05-06 20:24 27.83288 -17.21625 10122 ft 297 kts 71°
2026-05-06 20:24 27.83565 -17.19317 9946 ft 298 kts 86°
2026-05-06 20:24 27.83651 -17.16980 9817 ft 298 kts 86°
2026-05-06 20:24 27.83740 -17.14646 9688 ft 297 kts 86°
2026-05-06 20:25 27.84007 -17.12345 9551 ft 294 kts 73°
2026-05-06 20:25 27.84701 -17.10184 9429 ft 292 kts 64°
2026-05-06 20:25 27.85504 -17.08078 9298 ft 292 kts 65°
2026-05-06 20:25 27.86303 -17.05972 8987 ft 290 kts 65°
2026-05-06 20:26 27.87091 -17.03886 8590 ft 288 kts 65°
2026-05-06 20:26 27.87872 -17.01812 8173 ft 286 kts 65°
2026-05-06 20:26 27.88647 -16.99756 7743 ft 283 kts 65°
2026-05-06 20:26 27.89413 -16.97717 7322 ft 281 kts 65°
2026-05-06 20:27 27.90172 -16.95695 6907 ft 278 kts 65°
2026-05-06 20:27 27.90923 -16.93694 6462 ft 276 kts 65°
2026-05-06 20:27 27.91664 -16.91718 6017 ft 273 kts 65°
2026-05-06 20:27 27.92402 -16.89751 5572 ft 270 kts 65°
2026-05-06 20:28 27.93106 -16.87869 5296 ft 248 kts 65°
2026-05-06 20:28 27.93763 -16.86118 4883 ft 238 kts 65°
2026-05-06 20:28 27.94439 -16.84423 4357 ft 234 kts 64°
2026-05-06 20:28 27.95115 -16.82783 4030 ft 229 kts 63°
2026-05-06 20:29 27.95824 -16.81232 4011 ft 209 kts 57°
2026-05-06 20:29 27.96472 -16.79880 3976 ft 185 kts 63°
2026-05-06 20:29 27.96966 -16.78606 3804 ft 169 kts 65°
2026-05-06 20:29 27.97396 -16.77417 3610 ft 158 kts 65°
2026-05-06 20:30 27.97792 -16.76298 3422 ft 149 kts 65°
2026-05-06 20:30 27.98526 -16.74208 3036 ft 140 kts 66°
2026-05-06 20:30 27.98886 -16.73193 2851 ft 138 kts 65°
2026-05-06 20:31 27.99236 -16.72190 2667 ft 136 kts 66°
2026-05-06 20:31 27.99584 -16.71199 2492 ft 135 kts 65°
2026-05-06 20:31 27.99922 -16.70211 2337 ft 134 kts 66°
2026-05-06 20:31 28.00250 -16.69228 2208 ft 134 kts 68°
2026-05-06 20:32 28.00565 -16.68233 1959 ft 134 kts 67°
2026-05-06 20:32 28.00905 -16.67260 1774 ft 132 kts 66°
2026-05-06 20:32 28.01235 -16.66310 1620 ft 129 kts 66°
2026-05-06 20:32 28.01590 -16.65377 1465 ft 128 kts 66°
2026-05-06 20:33 28.01905 -16.64447 1288 ft 127 kts 69°
2026-05-06 20:33 28.02227 -16.63515 1076 ft 127 kts 66°
2026-05-06 20:33 28.02550 -16.62597 974 ft 126 kts 66°
2026-05-06 20:33 28.02896 -16.61682 717 ft 126 kts 69°
2026-05-06 20:34 28.03204 -16.60758 578 ft 126 kts 70°
2026-05-06 20:34 28.03532 -16.59844 432 ft 125 kts 68°
2026-05-06 20:34 28.03864 -16.58946 280 ft 122 kts 69°
2026-05-06 20:34 28.04164 -16.58071 203 ft 110 kts 67°
2026-05-06 20:35 28.04394 -16.57401 205 ft 70 kts 68°
2026-05-06 20:35 28.04518 -16.57070 202 ft 32 kts 57°
2026-05-06 20:35 28.04648 -16.56891 210 ft 26 kts 48°
2026-05-06 20:35 28.04740 -16.56796 218 ft 12 kts
2026-05-06 20:36 28.04774 -16.56862 219 ft 11 kts 256°
2026-05-06 20:36 28.04745 -16.56946 220 ft 11 kts 249°
2026-05-06 20:36 28.04718 -16.57028 201 ft 11 kts 246°
2026-05-06 20:36 28.04692 -16.57111 224 ft 11 kts 258°
2026-05-06 20:37 28.04736 -16.57170 223 ft 12 kts 340°
2026-05-06 20:37 28.04783 -16.57221 225 ft 10 kts 274°
2026-05-06 20:37 28.04752 -16.57313 225 ft 17 kts 246°
2026-05-06 20:37 28.04707 -16.57448 227 ft 18 kts 248°
2026-05-06 20:38 28.04662 -16.57568 225 ft 14 kts 253°
2026-05-06 20:38 28.04623 -16.57666 224 ft 14 kts 244°
2026-05-06 20:38 28.04587 -16.57772 224 ft 15 kts 251°
2026-05-06 20:38 28.04620 -16.57830 226 ft 9 kts 340°
2026-05-06 20:39 28.04647 -16.57841 227 ft 0 kts 338°